DRAGON CRS-21

Last updated on Thu Jan 14 2021 00:02:10 GMT+0000 (Coordinated Universal Time)

1 47233U 20093A 21013.48389079 .00164543 11183-4 18595-3 0 9990 2 47233 51.6440 27.6766 0151530 60.4978 301.0892 15.89877196 5878

Satellite not in orbit